Regional Weather Roundup
Issued by NWS Glasgow, MT

Home | Current Version | Previous Version | Text Only | Print | Product List | Glossary On
Versions: 1 2 3 4 5 6 7 8 9 10 11 12 13 14 15 16 17 18 19 20 21 22 23 24 25 26 27 28 29 30 31 32 33 34 35 36 37 38 39 40 41 42 43 44 45 46 47 48 49 50
000
ASUS45 KGGW 260815
RWRGGW
HOURLY WEATHER ROUNDUP FOR NORTHEAST MONTANA
NATIONAL WEATHER SERVICE GLASGOW MONTANA
200 AM MDT SAT JUL 26 2014

NOTE: "FAIR" INDICATES FEW OR NO CLOUDS BELOW 12,000 FEET WITH NO
SIGNIFICANT WEATHER AND/OR OBSTRUCTIONS TO VISISBILITY.

NORTHEAST MONTANA


CITY           SKY/WX    TMP DP  RH WIND       PRES   REMARKS
GLASGOW        CLEAR     58  48  69 W14       29.91R
PLENTYWOOD       N/A     58  50  75 W16         N/A
WOLF POINT     CLEAR     59  47  64 W12       29.89R
JORDAN           N/A     55  45  68 CALM      29.99R
WINNETT          N/A     54  40  59 CALM        N/A
SIDNEY         CLEAR     55  46  71 W7        29.90S
GLENDIVE       CLEAR     57  46  67 NW5       29.95R
MALTA            N/A    N/A N/A N/A N8          N/A
SCOBEY           N/A     57  48  72 W7        29.85S

FORT PECK REPORTS


CITY           SKY/WX    TMP DP  RH WIND       PRES   REMARKS
FORT PECK        N/A     60  47  61 W17         N/A
THE PINES        N/A     60  47  61 SW12        N/A

SOUTHEAST MONTANA


CITY           SKY/WX    TMP DP  RH WIND       PRES   REMARKS
BILLINGS       CLEAR     64  31  28 NW7       30.06R
MILES CITY     CLEAR     61  44  53 NW7       29.97R
BAKER          CLEAR     56  42  59 N6        29.96R
LIVINGSTON     CLEAR     54  33  45 W7        30.12R

CENTRAL MONTANA


CITY           SKY/WX    TMP DP  RH WIND       PRES   REMARKS
HAVRE          CLEAR     53  47  79 SW9       30.01S
LEWISTOWN      CLEAR     54  40  59 S3        30.09R
GREAT FALLS    CLEAR     52  37  56 SW8       30.06R
CUT BANK       CLEAR     48  41  76 CALM      30.08R
HELENA         CLEAR     60  38  43 VRB5      30.11R
BUTTE          CLEAR     47  29  49 S7        30.20S
BOZEMAN        CLEAR     50  39  66 SE8       30.14R

WESTERN MONTANA


CITY           SKY/WX    TMP DP  RH WIND       PRES   REMARKS
MISSOULA       CLEAR     55  41  59 NW5       30.13R
KALISPELL      NOT AVBL

NORTH DAKOTA


CITY           SKY/WX    TMP DP  RH WIND       PRES   REMARKS
WILLISTON      CLEAR     56  50  80 SW5       29.84S
DICKINSON      CLEAR     57  47  69 NW10      29.87R
MINOT          CLEAR     58  51  78 SW3       29.78F
BISMARCK       CLEAR     62  53  72 W6        29.82R

SOUTHERN SASKATCHEWAN


CITY           SKY/WX    TMP DP  RH WIND       PRES   REMARKS
REGINA         LGT RAIN  55  54  94 W24G33    29.65F
ESTEVAN        LGT RAIN  59  52  77 W13       29.76S
SWIFT CURRENT  CLOUDY    54  52  94 W22G29    29.81S




USA.gov is the U.S. government's official web portal to all federal, state and local government web resources and services.